Regional Weather Roundup
Issued by NWS

Home | Current Version | Previous Version | Graphics & Text | Print | Product List | Glossary On
Versions: 1 2 3 4 5 6 7 8 9 10 11 12 13 14 15 16 17 18 19 20 21 22 23 24 25 26 27 28 29 30 31 32 33 34 35 36 37 38 39 40 41 42 43 44 45 46 47 48 49 50
000
ASUS43 KMKX 200720
RWRWI

WISCONSIN REGIONAL WEATHER ROUNDUP
NATIONAL WEATHER SERVICE MILWAUKEE/SULLIVAN WI
100 AM CST TUE FEB 20 2018

NOTE: "FAIR" INDICATES FEW OR NO CLOUDS BELOW 12,000 FEET WITH NO
SIGNIFICANT WEATHER AND/OR OBSTRUCTIONS TO VISIBILITY.

WIZ001-002-006>008-014>016-023>028-200800-
NORTHWEST WISCONSIN

CITY           SKY/WX    TMP DP  RH WIND       PRES   REMARKS
SUPERIOR ARPT  LGT SNOW  20  17  88 E18G29    29.98F WCI   5
ASHLAND        LGT SNOW  20  16  84 NE17      29.97F FOG     WCI   5
HAYWARD        CLOUDY    18  14  84 NE15G21   29.89F WCI   4
SIREN          CLOUDY    19  18  93 NE8       29.90F WCI   9
CUMBERLAND     CLOUDY    19  16  86 NE10      29.84F WCI   8
RICE LAKE      CLOUDY    19  18  93 NE8       29.87F WCI   9
CHETEK         CLOUDY    19  17  93 NE8       29.86F WCI   8
LADYSMITH      CLOUDY    19  17  92 NE9       29.86F WCI   9
EAU CLAIRE     CLOUDY    20  18  92 NE13      29.84F WCI   7
MENOMONIE      CLOUDY    22  19  91 NE7       29.84F WCI  13
NEW RICHMOND   CLOUDY    19  16  86 NE8       29.86F WCI   9
OSCEOLA        CLOUDY    20  18  89 NE7       29.91S WCI  11
$$

WIZ003>005-009-010-017-018-200800-
NORTH CENTRAL WISCONSIN

CITY           SKY/WX    TMP DP  RH WIND       PRES   REMARKS
MANITOWISH WTR CLOUDY    16  16 100 NE9       29.86F FOG     WCI   5
ARBOR VITAE    CLOUDY    22  20  93 NE6       29.84F FOG     WCI  14
WOODRUFF       CLOUDY    22  20  93 NE6       29.84F FOG     WCI  14
RHINELANDER    CLOUDY    21  20  96 NE7       29.84F FOG     WCI  12
EAGLE RIVER    CLOUDY    20  19  98 NE6       29.84F FOG     WCI  12
LAND O LAKES   CLOUDY    20  18  94 NE6       29.87F FOG     WCI  12
PHILLIPS       CLOUDY    17  17  98 NE8       29.85F WCI   7
TOMAHAWK       CLOUDY    21  19  93 NE3       29.84F FOG
MEDFORD        CLOUDY    21  19  93 NE8       29.81S WCI  11
MERRILL        CLOUDY    23  22  96 NE8       29.83F WCI  14
$$

WIZ029-030-035-036-043>047-200800-
CENTRAL WISCONSIN

CITY           SKY/WX    TMP DP  RH WIND       PRES   REMARKS
WAUSAU         CLOUDY    26  25  96 N6        29.80F FOG     WCI  19
MOSINEE        CLOUDY    27  27 100 NE8       29.82S FOG     WCI  18
MARSHFIELD     CLOUDY    26  26 100 NE8       29.79S FOG     WCI  18
STEVENS POINT  CLOUDY    25  25 100 NE8       29.81F FOG     WCI  16
WAUPACA        CLOUDY    30  28  92 N5        29.81F FOG     WCI  25
WAUTOMA        CLOUDY    29  28  96 NE8       29.80F FOG     WCI  21
WISC RAPIDS    CLOUDY    27  24  89 NE7       29.81S FOG     WCI  19
CAMP DOUGLAS   FRZ DRZL  29  29  99 CALM      29.79F FOG
$$

WIZ011>013-019>022-031-037>040-048>050-200800-
NORTHEAST WISCONSIN

CITY           SKY/WX    TMP DP  RH WIND       PRES   REMARKS
ANTIGO         CLOUDY    24  24  99 NE9       29.81F WCI  14
SHAWANO        CLOUDY    29  27  93 NE7       29.83F FOG     WCI  22
OCONTO         CLOUDY    28  28  98 N5        29.83F WCI  23
STURGEON BAY   CLOUDY    34  32  93 NE8       29.81F FOG     WCI  27
GREEN BAY      CLOUDY    30  28  92 N9        29.81F FOG     WCI  22
MANITOWOC      CLOUDY    34  34 100 N6        29.80F FOG     WCI  29
APPLETON       CLOUDY    28  28 100 NE9       29.78F FOG     WCI  20
CLINTONVILLE   CLOUDY    28  26  95 NE7       29.82F FOG     WCI  20
OSHKOSH        CLOUDY    29  28  96 NE12      29.80F FOG     WCI  19
$$

WIZ032>034-041-042-053>061-200800-
SOUTHWEST WISCONSIN

CITY           SKY/WX    TMP DP  RH WIND       PRES   REMARKS
LA CROSSE      CLOUDY    31  29  92 N7        29.81F FOG     WCI  24
SPARTA         CLOUDY    28  28  99 NE6       29.81F FOG     WCI  22
VIROQUA        CLOUDY    31  31 100 NE6       29.77S WCI  25
BOSCOBEL       FOG       35  34  96 CALM      29.80R VSB 3/4
PRAIRIE DU CHI FOG       35  34  96 E3        29.77F VSB 3/4
PLATTEVILLE    CLOUDY    36  36 100 SW9       29.80R VSB 1/4 WCI  29
$$

WIZ056-057-062-063-064-067-068-200800-
SOUTH CENTRAL WISCONSIN

CITY           SKY/WX    TMP DP  RH WIND       PRES   REMARKS
REEDSBURG      FOG       30  30 100 E3        29.79S VSB 3/4
BARABOO/DELLS  FOG       30  29  99 NE5       29.78F VSB 1/4 WCI  25
LONE ROCK      FOG       33  33 100 NE5       29.79S VSB 1/4 WCI  29
MINERAL POINT  FOG       36  36 100 CALM      29.77R VSB 1/4
MADISON        CLOUDY    34  34 100 CALM      29.79S FOG
MIDDLETON      CLOUDY    35  35 100 CALM      29.79S
WATERTOWN      CLOUDY    35  35 100 CALM      29.78R FOG
MONROE         CLOUDY    41  41 100 SW9       29.78R FOG
JANESVILLE     RAIN      41  41 100 SW5       29.79R VSB 1/2
$$

WIZ051-052-058>065-066-070>072-200800-
SOUTHEAST WISCONSIN

CITY           SKY/WX    TMP DP  RH WIND       PRES   REMARKS
MILWAUKEE      FOG       38  38 100 CALM      29.79R VSB 1/2
WAUKESHA       FOG       34  34 100 SE3       29.79S VSB 3/4
MILWAUKEE/TIMM CLOUDY    36  32  87 CALM      29.79S FOG
RACINE         RAIN      38  37  97 N9        29.80S FOG     WCI  31
BURLINGTON     LGT RAIN  49  49  97 SW9       29.77S VSB 1
KENOSHA        RAIN      56  54  93 SW8       29.78S FOG
FOND DU LAC    CLOUDY    31  29  92 N7        29.78F FOG     WCI  24
SHEBOYGAN      FOG       35  35 100 N6        29.79R VSB 1   WCI  30
WEST BEND      CLOUDY    34  34 100 CALM      29.78S FOG
JUNEAU         RAIN      33  33  99 CALM      29.78F
$$

LSZ147-162-200800-
LAKE SUPERIOR

STATION/POSITION TIME  TEMP    WIND        PRES    WAVE
                       AIR SEA DIR/SP/G            HT/PER
                 (UTC) (F)     (DEG/KT/KT) (MB)    (FT/S)
DEVILS ISLAND    0700   20      50/ 31/ 35 1017.0F
SAXON HARBOR     0640   19      50/ 14/ 20 1014.6F
$$

LMZ867-665-643>646-200800-
LAKE MICHIGAN

STATION/POSITION TIME  TEMP    WIND        PRES    WAVE
                       AIR SEA DIR/SP/G            HT/PER
                 (UTC) (F)     (DEG/KT/KT) (MB)    (FT/S)
NORTHPORT PIER   0640   33                 1010.8S
KEWAUNEE LAKESHO 0654   35     350/  6/  9 1008.6F
SHEBOYGAN LAKESH 0700   36     340/  9/ 10 1009.3R
PORT WASHINGTON  0640   36      CALM  /  3 1009.8S
MILWAUKEE LAKESH 0700   36      60/  4/  4   N/A
KENOSHA   LAKESH 0700   57     220/  6/ 10 1008.8
$$

TC  - TEMPERATURE IN CELSIUS
VSB - VISIBILITY IN STATUTE MILES
WCI - WIND CHILL INDEX
HX  - HEAT INDEX




USA.gov is the U.S. government's official web portal to all federal, state and local government web resources and services.